sat.trackr.live / text

‹ back to catalog

STARLINK-35401

NORAD 66067 · 2025-235K

PAYLOAD ACTIVE UNKNOWN

§ Identity

Operator
Country
US
Launch date
2025-10-19
Launch site
AFETR
Launch vehicle
Mass (kg)
RCS (m²)

Purposes: comms

External: N2YO · Heavens-Above · Gunter

§ Orbital elements

Epoch: 2026-05-24T23:58:29.426880Z

Period
94.11 min
Inclination
53.1593°
Eccentricity
0.0001387
Mean motion
15.30197555 rev/d
Perigee alt
474.3 km
Apogee alt
476.2 km
Semi-major
6,853.4 km
B*
4.2572e-4
RAAN
250.8980°
Arg perigee
73.3166°
Mean anomaly
286.7986°
Rev number
3,457

§ Raw data

STARLINK-354011 66067U 25235K   26144.99895170  .00012269  00000+0  42572-3 0  99992 66067  53.1593 250.8980 0001387  73.3166 286.7986 15.30197555 34576

JSON: /api/v1/satellites/66067 · /tle

For live sub-satellite position, see the globe view (requires WebGL).

§ Visibility from observer

Set your observer location to see the next 7 days of passes ≥ 10°. The values pass through the URL so the page stays shareable.

No JS? Fill the form by hand. The geolocation button needs JavaScript.